EAGLET 1
1 43790U 18099AJ  24279.37473554  .00018080  00000-0  12834-2 0  9999
2 43790  97.5157 334.0903 0012303 318.4379  41.5912 15.04723684318830
ESEO
1 43792U 18099AL  24279.13474899  .00008602  00000-0  68464-3 0  9998
2 43792  97.4981 329.9667 0006032 292.2055  67.8528 15.00611471318681
CSIM
1 43793U 18099AM  24279.75469571  .00077210  00000-0  31747-2 0  9992
2 43793  97.5181 344.0027 0009618 282.8215  77.1947 15.23810043319567
JO-97
1 43803U 18099AX  24279.11629159  .00038101  00000-0  22730-2 0  9992
2 43803  97.5068 335.5104 0007960 285.4595  74.5755 15.11005441319273
Suomi 100
1 43804U 18099AY  24279.69825755  .00027933  00000-0  17192-2 0  9993
2 43804  97.5140 335.8299 0013304 283.0605  76.9139 15.09896539319330
ISAT
1 43879U 18111D   24279.56478932  .00041082  00000-0  21749-2 0  9991
2 43879  97.6061 184.9790 0011613 355.1315   4.9802 15.15241529316104
UWE-4
1 43880U 18111E   24279.57053505  .00035893  00000-0  19823-2 0  9992
2 43880  97.5986 184.6952 0015452   0.5155 359.6089 15.13724371316102
Sparrow
1 43881U 18111F   24279.56130500  .00042344  00000-0  22030-2 0  9996
2 43881  97.6165 187.1060 0011103  35.1251 325.0711 15.15855542316174
Prox-1
1 44339U 19036A   24279.53468075  .00031713  00000-0  50484-2 0  9992
2 44339  23.9989 233.6898 0008412 158.4040 201.6811 14.70604454281488
SONATE
1 44400U 19038Q   24279.58237692  .00066416  00000-0  15333-2 0  9999
2 44400  97.7159 279.2078 0016863  77.1252 283.1876 15.42157379291040
Taurus 1
1 44530U 19059C   24279.83323682  .00027937  00000-0  60021-2 0  9998
2 44530  98.5861  43.1990 0010217  79.1981 281.0367 14.58465614267878
Duchifat 3
1 44854U 19089C   24279.81879967  .00059026  00000-0  24637-2 0  9997
2 44854  36.9534  94.6399 0009035 321.2610  38.7491 15.22604062265035
TO-108
1 44881U 19093C   24279.82224343  .00005936  00000-0  71184-3 0  9996
2 44881  97.8196 354.4617 0013296 325.3596  34.6751 14.84357278259451
FloripaSat 1
1 44885U 19093G   24279.72684513  .00022175  00000-0  21484-2 0  9999
2 44885  97.8352   1.5869 0010844 311.7658  48.2633 14.92674657259847
RS-44
1 44909U 19096E   24279.81638443  .00000038  00000-0  10228-3 0  9999
2 44909  82.5256  31.2487 0218066 152.3593 208.9304 12.79734583223172
UPMSat 2
1 46276U 20061E   24279.73347267  .00055457  00000-0  13639-2 0  9997
2 46276  97.2840 345.0493 0002329 106.5409 253.6093 15.40440236227150
AmicalSat
1 46287U 20061R   24279.61141994  .00145739  00000-0  23820-2 0  9991
2 46287  97.3338 347.7710 0002751 179.6825 180.4430 15.52017197226596
SALSAT
1 46495U 20068K   24279.42754008  .00024946  00000-0  13010-2 0  9990
2 46495  97.8299 241.7523 0010790 302.5924  57.4266 15.15899088220996
UVSQ-SAT
1 47438U 21006AB  24279.74111648  .00522117  00000-0  24576-2 0  9995
2 47438  97.3019 343.4769 0004862 204.5093 155.5945 15.81764508205967
SOMP 2b
1 47445U 21006AJ  24279.75964927  .00281674  00000-0  24162-2 0  9991
2 47445  97.2998 340.7781 0005782 184.5359 175.5851 15.68511388205822
IDEASSat
1 47458U 21006AX  24279.72036970  .00191929  00000-0  22694-2 0  9991
2 47458  97.3138 340.7179 0005810 178.6275 181.5000 15.60633565205701
CubeSX-Sirius-HSE
1 47951U 21022V   24279.77390723  .00077986  00000-0  23545-2 0  9993
2 47951  97.4432 178.3065 0015473 102.2342 258.0635 15.33848938195478
CubeSX-HSE
1 47952U 21022W   24279.84664872  .00072221  00000-0  21659-2 0  9992
2 47952  97.4432 178.4988 0015606 101.2211 259.0787 15.34085535195494
KSU-Cubesat
1 47954U 21022Y   24279.69062814  .00097992  00000-0  24762-2 0  9995
2 47954  97.4438 180.3166 0014516  95.8449 264.4451 15.39323172195318
GRBAlpha
1 47959U 21022AD  24279.80525956  .00071913  00000-0  21539-2 0  9998
2 47959  97.4433 178.6226 0015382 101.2236 259.0736 15.34130823194312
Orbicraft-Zorkiy
1 47960U 21022AE  24279.87838151  .00084855  00000-0  22751-2 0  9997
2 47960  97.4476 180.4649 0014703  97.6113 262.6802 15.37551912195100
TUBIN
1 48900U 21059X   24279.84141628  .00054215  00000-0  15158-2 0  9995
2 48900  97.6597  68.2404 0006022  57.5310 302.6515 15.36478832181875
LEDSAT
1 49069U 21073D   24279.75874131  .00057412  00000-0  18719-2 0  9998
2 49069  97.4251 350.5300 0016171 249.8048 110.1454 15.31477384173331
CUTE
1 49263U 21088D   24279.46682184  .00073797  00000-0  27585-2 0  9998
2 49263  97.4838 345.1422 0012764  61.7798 298.4728 15.26982205166423
TeikyoSat 4
1 49396U 21102B   24279.56030860  .00008106  00000-0  56814-3 0  9991
2 49396  97.4468 320.7232 0011430 257.6497 102.3451 15.05406332159357
Z-Sat
1 49399U 21102E   24279.86312622  .00015753  00000-0  96142-3 0  9990
2 49399  97.4188 322.8823 0018328 234.1660 125.7868 15.10258536159687
KOSEN 1
1 49402U 21102H   24279.65772757  .00021482  00000-0  11785-2 0  9996
2 49402  97.4108 324.5680 0017079 214.4078 145.6049 15.14051261159840
HO-113
1 50466U 21131B   24279.82858131  .00004225  00000-0  13534-2 0  9990
2 50466  98.5240   4.3821 0004876 145.9206 214.2296 14.40042659145923
IRIS-A
1 51044U 22002BN  24279.75266598  .00069921  00000-0  17579-2 0  9990
2 51044  97.3700 346.3332 0004337  10.5860 349.5476 15.39695973151386
Planetum 1
1 52738U 22057G   24279.84708885  .00227241  00000-0  25050-2 0  9995
2 52738  97.5731  51.3673 0001207 181.7608 178.3645 15.62357678131701
Foresail-1
1 52766U 22057AL  24279.85903399  .00071876  00000-0  17798-2 0  9995
2 52766  97.5942  48.6063 0007907  99.9042 260.3096 15.40129681131432
SNUGLITE 2
1 52899U 22065F   24279.37619062  .00008343  00000-0  16855-2 0  9991
2 52899  98.1362  58.5363 0008021 162.5907 197.5571 14.61608955120356
IO-117
1 53106U 22080B   24276.98423469 -.00000003  00000-0  00000-0 0  9997
2 53106  70.1390 155.0791 0008198  82.9195 277.2397  6.42557526 52191
FO-118
1 54684U 22167C   24279.83343822  .00116010  00000-0  26779-2 0  9994
2 54684  97.6164  68.1671 0006839 118.8155 241.3779 15.42077414101275
SSS-2B
1 56184U 23054G   24279.86499781  .00166433  00000-0  22107-2 0  9991
2 56184  97.3482 179.7346 0009413 110.4137 249.8130 15.57598834 83250
SO-120
1 56992U 23084BU  24279.61157386  .00131070  00000-0  31070-2 0  9994
2 56992  97.5389  41.0699 0008996 341.5455  18.5463 15.41198430 73106
MRC-100
1 56993U 23084BV  24279.29185188  .00174598  00000-0  34647-2 0  9995
2 56993  97.5373  41.6738 0008460 331.6870  28.3918 15.46321535 73122
UmKA 1 (RS40S)
1 57172U 23091G   24279.83925919  .00020401  00000-0  12574-2 0  9995
2 57172  97.5978 330.8459 0017530 103.5615 256.7568 15.09857562 70170
CubeBel-2 (EU11S)
1 57175U 23091K   24279.84879965  .00028784  00000-0  17020-2 0  9991
2 57175  97.5978 330.9752 0015813 114.1921 246.0964 15.11315265 70185
VERONIKA
1 58261U 23174F   24279.74687277  .00071733  00000-0  25468-2 0  9999
2 58261  97.4493 353.9507 0010778 209.3655 150.6980 15.28710107 50551
KAFASAT
1 58317U 23174BP  24279.84830312  .00099430  00000-0  29303-2 0  9998
2 58317  97.4430 355.2528 0009811 186.9211 173.1898 15.34588528 50663
ENSO
1 58470U 23185J   24279.82881936  .00057188  00000-0  19767-2 0  9993
2 58470  97.4131 345.7402 0010376 243.2027 116.8152 15.29661996 47013
EIRSAT-1
1 58472U 23185L   24279.86806037  .00060900  00000-0  20140-2 0  9991
2 58472  97.4123 345.9625 0009942 242.7508 117.2720 15.31081645 47038
SO-121
1 58567U 23174CY  24279.47922447  .00393980  00000-0  49749-2 0  9998
2 58567  97.4368 357.1005 0009339 214.7263 145.3384 15.58197061 50758
SONATE-2
1 59112U 24043Q   24279.60607166  .00036343  00000-0  15431-2 0  9992
2 59112  97.4912  42.6154 0013159 267.4348  92.5382 15.22906061 32586
MO-122
1 60209U 24125G   24279.51913196  .00033860  00000-0  14312-2 0  9993
2 60209  97.3083 129.7055 0023253 299.5960  60.2960 15.22903204 14188
GRBBeta
1 60237U 24128C   24279.27124147  .00018571  00000-0  15571-2 0  9990
2 60237  61.9942 219.2306 0019758 347.5415  12.5182 14.98338966 13081
Curium One
1 60242U 24128H   24279.57721028  .00027951  00000-0  23429-2 0  9993
2 60242  61.9850 218.3837 0020151 334.5880  25.4216 14.98153346 13139
ROBUSTA-3A
1 60243U 24128J   24279.18891495  .00029513  00000-0  24909-2 0  9997
2 60243  61.9916 219.8999 0018403 330.3609  29.6435 14.97889724 13075
CatSat
1 60246U 24125J   24279.56587702  .00026451  00000-0  11315-2 0  9997
2 60246  97.2904 130.8464 0048959 248.6644 110.9362 15.21689342 12305
SR-0 DemoSAT
1 60455U 24147B   24279.58277802  .00458810  00000-0  63755-2 0  9995
2 60455  37.3768 342.8564 0023395  73.6437 286.6900 15.54246378  7777
Binar 4
1 60952U 98067WS  24279.82182949  .00353098  00000-0  34058-2 0  9999
2 60952  51.6309 125.4950 0001338 131.2039 228.9071 15.64805168  5837
CosmoGirlSat
1 60953U 98067WT  24279.80255673  .00181350  00000-0  21978-2 0  9990
2 60953  51.6335 126.1210 0006340  81.4748 278.6963 15.59492349  5823
Sakura
1 60954U 98067WU  24279.85372342  .00214368  00000-0  24665-2 0  9991
2 60954  51.6331 125.7127 0005265  85.0864 275.0730 15.60740007  5839
Binar 2
1 60956U 98067WW  24279.00184178  .00282515  00000-0  30299-2 0  9997
2 60956  51.6264 129.7619 0003422  99.5665 260.5716 15.62333618  5693
Binar 3
1 60957U 98067WX  24279.87275101  .00385836  00000-0  35556-2 0  9991
2 60957  51.6286 125.0834 0000924 146.5837 213.5217 15.65845508  7824
